This is the latest recevied weather packets stored in our database for station/object N2XP-2. If no packets are shown the sender has not sent any weather packets the latest 10 day(s).
| Time | Temp. | Humidity | Pressure | Rain* | Wind** | Luminosity | Snow |
|---|---|---|---|---|---|---|---|
| 1778067012 | 19.44° C | 78% | 1010.8 hPa | 0 mm | 1.79 m/s, 245° | - | - |
| 1778066748 | 19.44° C | 78% | 1010.9 hPa | 0 mm | 1.79 m/s, 207° | - | - |
| 1778066710 | 19.44° C | 78% | 1010.9 hPa | 0 mm | 1.79 m/s, 207° | - | - |
| 1778066411 | 19.44° C | 78% | 1010.9 hPa | 0 mm | 2.24 m/s, 269° | - | - |
| 1778066112 | 19.44° C | 78% | 1010.8 hPa | 0 mm | 1.79 m/s, 160° | - | - |
| 1778065808 | 19.44° C | 80% | 1010.8 hPa | 0 mm | 1.34 m/s, 242° | - | - |
| 1778065509 | 18.89° C | 82% | 1010.8 hPa | 0 mm | 1.34 m/s, 231° | - | - |
| 1778065210 | 18.33° C | 84% | 1010.8 hPa | 0 mm | 1.34 m/s, 181° | - | - |
| 1778065107 | 16.67° C | 89% | 1010.8 hPa | 0 mm | 1.34 m/s, 250° | - | - |
| 1778065098 | 16.67° C | 89% | 1010.8 hPa | 0 mm | 1.79 m/s, 158° | - | - |
| 1778064609 | 17.78° C | 87% | 1010.7 hPa | 0 mm | 1.34 m/s, 212° | - | - |
| 1778064310 | 17.22° C | 88% | 1010.7 hPa | 0 mm | 1.34 m/s, 259° | - | - |
| 1778064007 | 16.67° C | 89% | 1010.8 hPa | 0 mm | 1.34 m/s, 238° | - | - |
| 1778063708 | 16.67° C | 89% | 1010.8 hPa | 0 mm | 1.34 m/s, 250° | - | - |
| 1778063409 | 16.67° C | 89% | 1010.8 hPa | 0 mm | 1.79 m/s, 158° | - | - |
| 1778063179 | 16.67° C | 89% | 1010.5 hPa | 0 mm | 1.79 m/s, 240° | - | - |
| 1778063172 | 16.67° C | 89% | 1010.6 hPa | 0 mm | 1.34 m/s, 201° | - | - |
| 1778062808 | 16.67° C | 89% | 1010.7 hPa | 0 mm | 1.34 m/s, 188° | - | - |
| 1778062509 | 16.67° C | 89% | 1010.6 hPa | 0 mm | 1.79 m/s, 235° | - | - |
| 1778062206 | 16.67° C | 89% | 1010.6 hPa | 0 mm | 1.34 m/s, 231° | - | - |
| 1778061907 | 16.67° C | 89% | 1010.6 hPa | 0 mm | 1.79 m/s, 257° | - | - |
| 1778061608 | 16.67° C | 89% | 1010.5 hPa | 0 mm | 1.79 m/s, 240° | - | - |
| 1778061305 | 16.67° C | 89% | 1010.6 hPa | 0 mm | 1.34 m/s, 201° | - | - |
| 1778061253 | 16.67° C | 89% | 1010.6 hPa | 0 mm | 1.34 m/s, 203° | - | - |
| 1778061003 | 16.67° C | 89% | 1010.5 hPa | 0 mm | 1.34 m/s, 245° | - | - |
* Rain latest hour (hover to see other rain measurements)
** Current wind speed in m/s (hover to see current wind gust speed)